LA6LOA Weather Reports


time (UTC)temp
F
wind
direction
speed
knots
gust
knots
rain 1hr
in
rain 24hr
in
rain mn
in
humidity
%
barometer
mb
20260508122549 42 338 10.4 10.4 0.00 0.00 0.00 100 1023.0
20260508122049 42 352 7.0 7.8 0.00 0.00 0.00 100 1023.0
20260508121549 42 331 7.0 8.7 0.00 0.00 0.00 100 1023.0
20260508121049 41 345 5.2 7.8 0.00 0.00 0.00 100 1023.0
20260508120549 41 348 6.1 8.7 0.00 0.00 0.00 100 1023.0
20260508120049 41 357 7.8 8.7 0.00 0.00 0.00 100 1022.9
20260508115549 41 336 7.0 8.7 0.00 0.00 0.00 100 1022.9
20260508115049 41 348 7.8 8.7 0.00 0.00 0.00 100 1022.8
20260508114549 41 7 5.2 7.8 0.00 0.00 0.00 100 1022.8
20260508114049 40 358 6.1 8.7 0.00 0.00 0.00 100 1022.9
20260508113549 41 350 7.8 10.4 0.00 0.00 0.00 100 1022.9
20260508113049 41 340 9.6 10.4 0.00 0.00 0.00 100 1022.9
20260508112549 41 334 9.6 10.4 0.00 0.00 0.00 100 1022.8
20260508112049 41 331 7.8 9.6 0.00 0.00 0.00 100 1022.8
20260508111549 41 326 9.6 10.4 0.00 0.00 0.00 100 1022.9
20260508111049 42 319 9.6 12.2 0.00 0.00 0.00 100 1022.8
20260508110550 44 309 9.6 13.0 0.00 0.00 0.00 100 1022.8
20260508110049 46 336 6.1 8.7 0.00 0.00 0.00 100 1022.7
20260508105549 47 1 3.5 5.2 0.00 0.00 0.00 100 1022.7
20260508105049 47 135 0.0 7.8 0.00 0.00 0.00 100 1022.6
20260508104549 47 180 4.3 8.7 0.00 0.00 0.00 100 1022.5
20260508104049 47 147 6.1 7.8 0.00 0.00 0.00 100 1022.5
20260508103549 45 137 5.2 9.6 0.00 0.00 0.00 100 1022.4
20260508103049 45 130 0.9 6.1 0.00 0.00 0.00 100 1022.3
20260508102550 45 222 0.9 7.8 0.00 0.00 0.00 100 1022.3
20260508102049 45 217 5.2 6.1 0.00 0.00 0.00 100 1022.3
20260508101550 45 181 0.9 8.7 0.00 0.00 0.00 100 1022.3
20260508101050 45 182 0.0 7.0 0.00 0.00 0.00 100 1022.3
20260508100550 45 217 0.0 4.3 0.00 0.00 0.00 100 1022.3
20260508100050 45 265 0.0 6.1 0.00 0.00 0.00 100 1022.2
20260508095550 45 271 4.3 7.8 0.00 0.00 0.00 100 1022.2
20260508095050 45 292 4.3 7.0 0.00 0.00 0.00 100 1022.2
20260508094550 46 291 7.0 7.8 0.00 0.00 0.00 100 1022.1
20260508094050 46 277 0.9 6.1 0.00 0.00 0.00 100 1022.1
20260508093550 46 285 0.0 6.1 0.00 0.00 0.00 100 1022.1
20260508093050 46 229 0.0 7.8 0.00 0.00 0.00 100 1022.1
20260508092550 46 267 0.0 6.1 0.00 0.00 0.00 100 1022.0
20260508092050 46 274 0.9 4.3 0.00 0.00 0.00 100 1022.0
20260508091550 46 222 3.5 5.2 0.00 0.00 0.00 100 1022.0
20260508091050 46 209 0.0 0.0 0.00 0.00 0.00 100 1021.9
20260508090550 45 209 0.0 6.1 0.00 0.00 0.00 100 1021.9
20260508090050 44 274 4.3 6.1 0.00 0.00 0.00 100 1021.9
20260508085550 44 215 1.7 3.5 0.00 0.00 0.00 100 1021.8
20260508085050 44 185 0.0 6.1 0.00 0.00 0.00 100 1021.9
20260508084550 43 279 5.2 7.8 0.00 0.00 0.00 100 1021.9
20260508084050 43 267 3.5 10.4 0.00 0.00 0.00 100 1021.9
20260508083550 43 236 7.8 14.8 0.00 0.00 0.00 100 1021.9
20260508083050 42 253 9.6 16.5 0.00 0.00 0.00 100 1021.8
20260508082550 43 271 11.3 14.8 0.00 0.00 0.00 100 1021.8
20260508082050 43 268 12.2 13.0 0.00 0.00 0.00 100 1021.8
20260508081550 45 288 0.0 3.5 0.00 0.00 0.00 100 1021.8
20260508081050 44 275 0.0 5.2 0.00 0.00 0.00 100 1021.7
20260508080550 44 291 2.6 6.1 0.00 0.00 0.00 100 1021.7
20260508080050 45 241 0.0 0.0 0.00 0.00 0.00 100 1021.7
20260508075550 44 241 0.0 3.5 0.00 0.00 0.00 100 1021.5
20260508075050 44 298 2.6 2.6 0.00 0.00 0.00 100 1021.6
20260508074550 44 285 0.0 4.3 0.00 0.00 0.00 100 1021.6
20260508074050 45 144 0.0 5.2 0.00 0.00 0.00 100 1021.6
20260508073550 45 199 0.0 5.2 0.00 0.00 0.00 100 1021.5
20260508073050 44 258 4.3 6.1 0.00 0.00 0.00 100 1021.5
20260508072550 44 261 0.0 7.0 0.00 0.00 0.00 100 1021.4
20260508072050 43 286 5.2 7.0 0.00 0.00 0.00 100 1021.3
20260508071550 43 302 6.1 7.0 0.00 0.00 0.00 100 1021.3
20260508071050 43 305 3.5 7.0 0.00 0.00 0.00 100 1021.2
20260508070550 43 270 0.0 7.8 0.00 0.00 0.00 100 1021.2
20260508070050 43 285 3.5 8.7 0.00 0.00 0.00 100 1021.1
20260508065550 43 284 5.2 7.8 0.00 0.00 0.00 100 1021.0
20260508065050 44 215 0.0 0.0 0.00 0.00 0.00 100 1020.9
20260508064550 43 215 0.0 0.0 0.00 0.00 0.00 100 1020.8
20260508064050 43 215 0.0 0.0 0.00 0.00 0.00 100 1020.7
20260508063550 43 215 0.0 7.0 0.00 0.00 0.00 100 1020.7
20260508063050 43 209 1.7 7.0 0.00 0.00 0.00 100 1020.6
20260508062550 44 243 4.3 5.2 0.00 0.00 0.00 100 1020.4
20260508062050 44 222 0.9 5.2 0.00 0.00 0.00 100 1020.4
20260508061550 44 184 0.0 3.5 0.00 0.00 0.00 100 1020.2
20260508061050 45 202 0.0 2.6 0.00 0.00 0.00 100 1020.1
20260508060550 44 237 0.0 0.0 0.00 0.00 0.00 100 1020.0
20260508060050 44 237 0.0 4.3 0.00 0.00 0.00 100 1019.9
20260508055550 44 299 3.5 4.3 0.00 0.00 0.00 100 1019.9
20260508055050 44 296 4.3 6.1 0.00 0.00 0.00 100 1019.9
20260508054550 44 279 5.2 6.1 0.00 0.00 0.00 100 1019.7
20260508054051 43 217 0.0 2.6 0.00 0.00 0.00 100 1019.7
20260508053551 44 80 0.0 0.0 0.00 0.00 0.00 100 1019.6
20260508053051 43 80 0.0 0.0 0.00 0.00 0.00 100 1019.6
20260508052551 43 80 0.0 0.0 0.00 0.00 0.00 100 1019.6
20260508052051 43 80 0.0 2.6 0.00 0.00 0.00 100 1019.5
20260508051551 42 112 0.9 0.9 0.00 0.00 0.00 100 1019.5
20260508051051 42 160 0.0 2.6 0.00 0.00 0.00 100 1019.5
20260508050551 42 185 0.0 7.0 0.00 0.00 0.00 100 1019.4
20260508050051 42 178 5.2 7.0 0.00 0.00 0.00 100 1019.4
20260508045551 43 122 0.0 0.0 0.00 0.00 0.00 100 1019.4
20260508045051 42 122 0.0 4.3 0.00 0.00 0.00 100 1019.4
20260508044551 42 139 0.0 0.0 0.00 0.00 0.00 100 1019.4
20260508044051 42 139 0.0 0.0 0.00 0.00 0.00 100 1019.3
20260508043551 42 139 0.0 0.0 0.00 0.00 0.00 100 1019.3
20260508043051 42 139 0.0 1.7 0.00 0.00 0.00 100 1019.2
20260508042551 42 139 1.7 2.6 0.00 0.00 0.00 100 1019.2
20260508042051 42 192 0.0 5.2 0.00 0.00 0.00 100 1019.2
20260508041551 42 135 0.0 4.3 0.00 0.00 0.00 100 1019.2
20260508041051 42 185 0.0 4.3 0.00 0.00 0.00 100 1019.1
20260508040551 41 177 0.9 6.1 0.00 0.00 0.00 100 1019.2
20260508040051 41 171 0.9 5.2 0.00 0.00 0.00 100 1019.1
20260508035551 41 220 0.0 0.0 0.00 0.00 0.00 100 1019.1
20260508035051 40 220 0.0 0.0 0.00 0.00 0.00 100 1019.1
20260508034551 40 220 0.0 5.2 0.00 0.00 0.00 100 1019.0
20260508034051 40 137 0.0 0.0 0.00 0.00 0.00 100 1019.0
20260508033551 41 137 0.0 0.0 0.00 0.00 0.00 100 1019.0
20260508033051 43 137 0.0 0.0 0.00 0.00 0.00 100 1018.9
20260508032551 46 137 0.0 0.0 0.00 0.00 0.00 100 1019.0
20260508032051 41 137 0.0 0.0 0.00 0.00 0.00 100 1018.9
20260508031551 40 137 0.0 0.0 0.00 0.00 0.00 100 1018.9
20260508031051 39 137 0.0 6.1 0.00 0.00 0.00 100 1018.8
20260508030551 40 126 0.0 5.2 0.00 0.00 0.00 100 1018.8
20260508030051 42 106 0.0 1.7 0.00 0.00 0.00 100 1018.8
20260508025551 40 106 1.7 5.2 0.00 0.00 0.00 100 1018.8
20260508025051 38 144 0.9 6.1 0.00 0.00 0.00 100 1018.8
20260508024551 38 198 0.0 0.0 0.00 0.00 0.00 100 1018.7
20260508024051 38 198 0.0 0.0 0.00 0.00 0.00 100 1018.7
20260508023551 38 198 0.0 0.0 0.00 0.00 0.00 100 1018.6
20260508023051 38 198 0.0 0.0 0.00 0.00 0.00 100 1018.6
20260508022551 38 198 0.0 0.0 0.00 0.00 0.00 100 1018.6
20260508022051 38 198 0.0 0.0 0.00 0.00 0.00 100 1018.5
20260508021551 38 198 0.0 0.0 0.00 0.00 0.00 100 1018.6
20260508021051 38 198 0.0 0.0 0.00 0.00 0.00 100 1018.5
20260508020551 38 198 0.0 0.0 0.00 0.00 0.00 100 1018.5
20260508020051 38 198 0.0 0.0 0.00 0.00 0.00 100 1018.5
20260508015551 38 198 0.0 4.3 0.00 0.00 0.00 100 1018.5
20260508015051 38 198 0.0 0.0 0.00 0.00 0.00 100 1018.5
20260508014551 38 198 0.0 3.5 0.00 0.00 0.00 100 1018.4
20260508014051 38 213 0.0 5.2 0.00 0.00 0.00 100 1018.4
20260508013551 38 170 0.0 6.1 0.00 0.00 0.00 100 1018.3
20260508013051 38 213 5.2 7.8 0.00 0.00 0.00 100 1018.2
20260508012551 38 203 0.0 0.0 0.00 0.00 0.00 100 1018.2
20260508012051 37 203 0.0 7.8 0.00 0.00 0.00 100 1018.2
20260508011551 38 243 4.3 10.4 0.00 0.00 0.00 100 1018.1
20260508011052 38 253 6.1 12.2 0.00 0.00 0.00 100 1018.1
20260508010552 38 222 9.6 11.3 0.00 0.00 0.00 100 1018.1
20260508010052 37 229 6.1 9.6 0.00 0.00 0.00 100 1018.0
20260508005552 37 222 6.1 7.8 0.00 0.00 0.00 100 1018.1
20260508005052 37 215 3.5 7.8 0.00 0.00 0.00 100 1018.0
20260508004552 37 199 0.0 4.3 0.00 0.00 0.00 100 1017.9
20260508004052 37 215 0.0 7.0 0.00 0.00 0.00 100 1017.9
20260508003552 37 199 0.0 6.1 0.00 0.00 0.00 100 1017.9
20260508003052 36 149 0.0 0.0 0.00 0.00 0.00 100 1017.8
20260508002552 36 149 0.0 0.0 0.00 0.00 0.00 100 1017.7
20260508002052 37 149 0.0 7.0 0.00 0.00 0.00 100 1017.7
20260508001552 37 206 0.0 7.0 0.00 0.00 0.00 100 1017.8
20260508001052 37 208 0.0 7.0 0.00 0.00 0.00 100 1017.7
20260508000552 37 206 5.2 6.1 0.00 0.00 0.00 100 1017.7
20260508000052 37 210 4.3 4.3 0.00 0.00 0.00 100 1017.6
20260507235552 37 206 0.0 8.7 0.00 0.00 0.00 100 1017.7
20260507235052 37 194 5.2 7.8 0.00 0.00 0.00 100 1017.6
20260507234552 37 208 0.0 3.5 0.00 0.00 0.00 100 1017.6
20260507234052 37 205 0.0 7.0 0.00 0.00 0.00 100 1017.6
20260507233552 37 184 0.9 7.0 0.00 0.00 0.00 100 1017.6
20260507233052 37 208 6.1 10.4 0.00 0.00 0.00 100 1017.5
20260507232552 37 229 3.5 9.6 0.00 0.00 0.00 100 1017.5
20260507232052 36 210 7.8 7.8 0.00 0.00 0.00 100 1017.4
20260507231552 36 212 0.0 0.9 0.00 0.00 0.00 100 1017.4
20260507231052 36 212 0.0 7.0 0.00 0.00 0.00 100 1017.3
20260507230552 35 195 0.0 5.2 0.00 0.00 0.00 100 1017.4
20260507230052 35 182 0.0 0.0 0.00 0.00 0.00 100 1017.3
20260507225552 35 182 0.0 2.6 0.00 0.00 0.00 100 1017.4
20260507225052 35 241 0.0 0.0 0.00 0.00 0.00 100 1017.4
20260507224552 35 241 0.0 0.0 0.00 0.00 0.00 100 1017.3
20260507224052 36 241 0.0 0.0 0.00 0.00 0.00 100 1017.3
20260507223552 36 241 0.0 2.6 0.00 0.00 0.00 100 1017.3
20260507223052 36 109 0.0 1.7 0.00 0.00 0.00 100 1017.3
20260507222552 36 109 0.0 0.0 0.00 0.00 0.00 100 1017.3
20260507222052 36 109 0.0 0.0 0.00 0.00 0.00 100 1017.3
20260507221552 36 109 0.0 2.6 0.00 0.00 0.00 100 1017.3
20260507221052 37 202 0.0 0.0 0.00 0.00 0.00 100 1017.3
20260507220552 37 202 0.0 3.5 0.00 0.00 0.00 100 1017.3
20260507220052 37 119 0.0 3.5 0.00 0.00 0.00 100 1017.3
20260507215552 37 178 0.0 3.5 0.00 0.00 0.00 100 1017.3
20260507215052 38 178 0.9 6.1 0.00 0.00 0.00 100 1017.3
20260507214552 38 135 3.5 5.2 0.00 0.00 0.00 100 1017.3
20260507214052 38 101 0.0 6.1 0.00 0.00 0.00 100 1017.3
20260507213552 38 139 4.3 4.3 0.00 0.00 0.00 100 1017.3
20260507213052 38 149 0.0 3.5 0.00 0.00 0.00 100 1017.3
20260507212552 38 106 0.0 0.0 0.00 0.00 0.00 100 1017.3
20260507212052 38 106 0.0 5.2 0.00 0.00 0.00 100 1017.3
20260507211552 38 94 0.0 6.1 0.00 0.00 0.00 100 1017.3
20260507211052 38 120 0.0 0.0 0.00 0.00 0.00 100 1017.3
20260507210552 38 120 0.0 4.3 0.00 0.00 0.00 100 1017.3
20260507210052 38 115 2.6 7.0 0.00 0.00 0.00 100 1017.3
20260507205552 38 175 0.0 5.2 0.00 0.00 0.00 100 1017.4
20260507205052 38 136 0.0 6.1 0.00 0.00 0.00 100 1017.4
20260507204552 38 123 5.2 7.0 0.00 0.00 0.00 100 1017.4
20260507204052 37 75 0.0 0.0 0.00 0.00 0.00 100 1017.4
20260507203552 38 75 0.0 5.2 0.00 0.00 0.00 100 1017.5
20260507203052 37 133 0.0 0.0 0.00 0.00 0.00 100 1017.6
20260507202552 38 133 0.0 0.0 0.00 0.00 0.00 100 1017.5
20260507202052 38 133 0.0 0.0 0.00 0.00 0.00 100 1017.5
20260507201553 38 133 0.0 7.0 0.00 0.00 0.00 100 1017.5
20260507201053 38 172 5.2 5.2 0.00 0.00 0.00 100 1017.4
20260507200553 38 170 0.0 6.1 0.00 0.00 0.00 100 1017.4
20260507200053 38 172 0.0 7.8 0.00 0.00 0.00 100 1017.4
20260507195553 38 146 0.9 6.1 0.00 0.00 0.00 100 1017.4
20260507195053 38 90 0.0 7.8 0.00 0.00 0.00 100 1017.3
20260507194553 38 165 0.9 8.7 0.00 0.00 0.00 100 1017.3
20260507194053 38 158 5.2 9.6 0.00 0.00 0.00 100 1017.3
20260507193553 39 130 6.1 11.3 0.00 0.00 0.00 100 1017.3
20260507193053 39 150 6.1 8.7 0.00 0.00 0.00 100 1017.3
20260507192553 39 153 0.0 7.8 0.00 0.00 0.00 100 1017.2
20260507192053 39 135 0.0 7.0 0.00 0.00 0.00 100 1017.2
20260507191553 39 113 4.3 8.7 0.00 0.00 0.00 100 1017.2
20260507191053 39 136 4.3 10.4 0.00 0.00 0.00 100 1017.1
20260507190553 40 136 4.3 9.6 0.00 0.00 0.00 100 1017.1
20260507190053 40 172 0.9 7.8 0.00 0.00 0.00 100 1017.1
20260507185553 40 122 0.0 7.0 0.00 0.00 0.00 100 1017.1
20260507185053 41 113 0.9 7.8 0.00 0.00 0.00 100 1017.0
20260507184553 41 123 7.0 10.4 0.00 0.00 0.00 100 1017.0
20260507184053 42 170 5.2 9.6 0.00 0.00 0.00 100 1016.9
20260507183553 42 180 3.5 6.1 0.00 0.00 0.00 100 1016.9
20260507183053 41 175 0.0 5.2 0.00 0.00 0.00 100 1016.9
20260507182553 41 108 0.0 0.0 0.00 0.00 0.00 100 1016.8
20260507182053 41 108 0.0 6.1 0.00 0.00 0.00 100 1016.8
20260507181553 41 129 5.2 6.1 0.00 0.00 0.00 100 1016.8
20260507181053 41 105 0.0 7.0 0.00 0.00 0.00 100 1016.8
20260507180553 41 132 4.3 7.0 0.00 0.00 0.00 100 1016.7
20260507180053 41 118 0.9 7.0 0.00 0.00 0.00 100 1016.7
20260507175553 40 97 0.0 5.2 0.00 0.00 0.00 100 1016.7
20260507175053 40 132 0.9 9.6 0.00 0.00 0.00 100 1016.6
20260507174553 41 149 5.2 9.6 0.00 0.00 0.00 100 1016.5
20260507174053 42 160 4.3 8.7 0.00 0.00 0.00 100 1016.4
20260507173553 42 116 3.5 7.8 0.00 0.00 0.00 100 1016.4
20260507173053 42 140 0.9 7.8 0.00 0.00 0.00 100 1016.3
20260507172553 42 180 7.0 7.8 0.00 0.00 0.00 100 1016.3
20260507172053 42 172 0.9 7.0 0.00 0.00 0.00 100 1016.3
20260507171553 42 109 2.6 7.0 0.00 0.00 0.00 100 1016.2
20260507171053 42 129 5.2 7.8 0.00 0.00 0.00 100 1016.2
20260507170554 42 167 4.3 9.6 0.00 0.00 0.00 100 1016.2
20260507170053 42 150 4.3 7.0 0.00 0.00 0.00 100 1016.1
20260507165553 41 84 0.0 5.2 0.00 0.00 0.00 100 1016.1
20260507165053 42 113 4.3 7.0 0.00 0.00 0.00 100 1016.0
20260507164553 43 154 0.0 4.3 0.00 0.00 0.00 100 1016.1
20260507164053 43 161 0.0 6.1 0.00 0.00 0.00 100 1016.1
20260507163553 43 137 3.5 7.0 0.00 0.00 0.00 100 1016.1
20260507163053 43 101 0.9 6.1 0.00 0.00 0.00 100 1016.0
20260507162553 43 153 4.3 4.3 0.00 0.00 0.00 100 1016.0
20260507162053 43 99 0.0 3.5 0.00 0.00 0.00 100 1015.9
20260507161553 43 164 0.0 5.2 0.00 0.00 0.00 100 1015.9
20260507161053 42 104 0.0 6.1 0.00 0.00 0.00 100 1015.9
20260507160553 42 146 0.9 5.2 0.00 0.00 0.00 100 1015.9
20260507160053 42 127 0.0 7.0 0.00 0.00 0.00 100 1015.8
20260507155553 42 91 0.0 0.0 0.00 0.00 0.00 100 1015.8
20260507155053 42 91 0.0 5.2 0.00 0.00 0.00 100 1015.8
20260507154553 42 90 0.0 5.2 0.00 0.00 0.00 100 1015.8
20260507154054 42 125 0.0 0.0 0.00 0.00 0.00 100 1015.7
20260507153554 41 125 0.0 6.1 0.00 0.00 0.00 100 1015.7
20260507153054 40 101 0.0 0.0 0.00 0.00 0.00 100 1015.6
20260507152554 40 101 0.0 0.0 0.00 0.00 0.00 100 1015.6
20260507152054 40 101 0.0 0.0 0.00 0.00 0.00 100 1015.6
20260507151554 40 101 0.0 2.6 0.00 0.00 0.00 100 1015.6
20260507151054 41 310 0.0 0.0 0.00 0.00 0.00 100 1015.6
20260507150554 40 310 0.0 0.0 0.00 0.00 0.00 100 1015.7
20260507150054 41 310 0.0 0.0 0.00 0.00 0.00 100 1015.7
20260507145554 40 310 0.0 0.0 0.00 0.00 0.00 100 1015.6
20260507145054 39 310 0.0 0.0 0.00 0.00 0.00 100 1015.6
20260507144554 40 310 0.0 0.0 0.00 0.00 0.00 100 1015.6
20260507144054 40 310 0.0 7.0 0.00 0.00 0.00 100 1015.5
20260507143554 40 319 3.5 7.0 0.00 0.00 0.00 100 1015.5
20260507143054 41 309 6.1 6.1 0.00 0.00 0.00 100 1015.4
20260507142554 41 307 0.9 7.8 0.00 0.00 0.00 100 1015.4
20260507142054 41 327 3.5 7.0 0.00 0.00 0.00 100 1015.4
20260507141554 41 319 5.2 7.8 0.00 0.00 0.00 100 1015.4
20260507141054 42 316 6.1 7.0 0.00 0.00 0.00 100 1015.4
20260507140554 43 317 5.2 7.8 0.00 0.00 0.00 100 1015.4
20260507140054 42 319 5.2 8.7 0.00 0.00 0.00 100 1015.3
20260507135554 42 312 7.8 10.4 0.00 0.00 0.00 100 1015.3
20260507135054 42 329 8.7 12.2 0.00 0.00 0.00 100 1015.2
20260507134554 43 323 7.8 11.3 0.00 0.00 0.00 100 1015.2
20260507134054 42 316 10.4 10.4 0.00 0.00 0.00 100 1015.1
20260507133554 41 313 5.2 9.6 0.00 0.00 0.00 100 1015.0
20260507133054 41 306 8.7 10.4 0.00 0.00 0.00 100 1015.0
20260507132554 42 313 6.1 10.4 0.00 0.00 0.00 100 1014.9
20260507132054 42 299 7.8 11.3 0.00 0.00 0.00 100 1014.8
20260507131554 42 303 6.1 11.3 0.00 0.00 0.00 100 1014.8
20260507131054 42 289 8.7 11.3 0.00 0.00 0.00 100 1014.8
20260507130554 42 285 7.8 12.2 0.00 0.00 0.00 100 1014.8
20260507130054 42 291 8.7 13.0 0.00 0.00 0.00 100 1014.8
20260507125554 43 286 8.7 13.0 0.00 0.00 0.00 100 1014.6
20260507125054 43 271 9.6 13.9 0.00 0.00 0.00 100 1014.5
20260507124554 43 268 11.3 13.9 0.00 0.00 0.00 100 1014.4
20260507124054 43 292 8.7 16.5 0.00 0.00 0.00 100 1014.3
20260507123554 44 292 9.6 17.4 0.00 0.00 0.00 100 1014.3
20260507123054 44 288 11.3 16.5 0.00 0.00 0.00 100 1014.2